Temperature
12 12 12 12 12 12 12 12 12 12 12 12 12 12 11 11 11 11 11 10 10 10 10 10 9 9 9 9 9 9 9 9 9 9 9 9 8 8 8 8 8 8 8
12 12 12 12 12 12 12 12 12 12 12 11 11 11 11 11 11 10 10 10 10 10 10 9 9 9 9 9 9 8 8 8 8 8 8 8 8 8 8 7 7 7 7
11 11 11 11 11 11 11 11 11 11 11 11 11 11 11 11 10 10 10 10 10 10 10 9 9 9 8 8 8 8 8 8 8 8 8 8 7 7 7 7 7 7 7
11 11 11 11 11 11 11 11 11 11 11 11 11 11 10 10 10 10 10 10 10 9 9 9 9 9 8 8 8 8 8 8 8 8 7 7 7 7 7 7 7 7 6
11 11 11 11 11 11 11 11 11 11 11 11 10 10 10 10 10 10 10 9 9 9 9 9 9 8 8 8 8 8 7 7 7 7 7 7 7 6 6 6 6 6 6
10 10 10 10 10 10 10 11 10 11 11 10 10 10 10 9 9 9 9 9 9 9 8 8 8 8 8 8 8 8 7 7 7 7 6 6 6 6 6 6 6 6 6
10 10 10 10 10 10 10 10 10 10 10 10 9 9 9 9 9 9 9 9 9 8 8 8 8 8 8 8 8 8 7 7 6 6 6 6 6 6 5 5 5 5 5
10 10 10 10 10 10 10 10 10 10 10 9 9 9 8 9 9 9 9 9 8 8 8 8 8 8 7 7 7 7 7 7 6 6 6 5 5 5 5 5 5 5 5
9 10 10 10 10 10 10 10 10 10 9 9 9 9 8 8 8 8 8 8 8 8 8 8 7 7 7 7 7 7 7 6 6 6 5 5 5 5 5 4 4 4 4
9 9 9 9 9 9 9 9 9 9 9 9 9 8 8 8 7 7 8 8 7 7 7 7 7 7 7 6 6 6 6 6 6 6 5 5 4 4 4 4 4 4 4
8 9 9 9 9 9 9 9 9 9 9 9 8 8 8 7 7 7 7 7 7 7 7 6 6 6 6 6 6 6 6 5 5 5 5 5 4 4 4 4 4 4 4
8 8 8 8 8 8 8 8 8 8 8 8 8 8 7 7 7 7 6 6 6 6 6 6 6 6 6 5 5 5 5 5 5 5 5 4 4 4 4 4 3 3 3
7 7 7 7 8 8 8 8 8 8 8 8 8 7 7 7 6 6 6 6 6 6 5 5 5 5 5 5 5 5 5 5 4 4 4 4 4 3 3 3 3 3 3
6 7 7 7 7 7 7 7 7 7 7 7 7 7 6 6 6 6 6 5 5 5 5 5 5 5 5 5 5 5 4 4 4 4 4 4 3 3 3 3 3 3 3
6 6 6 6 6 7 7 7 7 7 7 6 6 6 6 6 6 5 5 5 5 4 4 4 4 4 4 4 4 4 4 4 4 4 4 3 3 3 3 3 2 2 2
6 6 6 6 6 6 6 6 6 6 6 6 6 6 6 5 5 5 5 5 4 4 4 4 4 4 4 4 4 4 4 4 4 3 3 3 3 3 2 2 2 2 2
5 5 5 5 5 5 5 6 6 6 5 5 5 5 5 5 4 4 4 4 4 4 4 4 4 4 3 3 3 3 3 3 3 3 3 3 3 2 2 2 2 2 2
5 5 4 5 5 5 5 5 5 5 5 5 4 4 4 4 4 4 4 4 4 3 3 3 3 3 3 3 3 3 3 3 3 3 3 2 2 2 2 2 2 2 2
4 4 4 4 4 4 4 4 5 4 4 4 4 4 4 3 3 3 3 3 3 3 3 3 3 3 3 3 3 3 3 3 3 2 2 2 2 2 2 1 1 1 1
3 3 3 4 4 4 4 4 4 4 4 4 3 3 3 3 3 3 3 3 3 3 3 2 2 2 2 2 2 2 3 3 2 2 2 2 2 2 1 1 1 1 1
3 3 3 3 3 3 3 3 3 3 3 3 3 3 2 2 2 2 2 2 2 2 2 2 2 2 2 2 2 1 1 2 2 2 2 2 1 1 1 1 1 1 0
2 2 2 2 3 3 3 3 3 3 3 2 2 2 2 2 2 2 2 2 2 2 2 2 1 1 1 1 1 1 1 1 1 1 1 1 1 1 1 1 0 0 0
2 2 2 2 2 2 2 2 2 2 2 2 2 1 1 1 1 1 1 1 1 1 1 1 1 1 1 0 0 0 0 0 -0 -0 0 1 1 1 0 0 -0 -0 -0
1 1 1 1 1 1 1 1 1 1 1 1 1 1 1 1 1 1 1 1 1 1 1 1 0 0 0 0 -0 -0 -0 -0 -0 -0 -1 -1 -0 0 0 0 -0 -0 -1
1 1 1 1 1 1 1 1 0 0 0 0 0 0 0 0 0 0 0 1 1 1 0 0 -0 -0 -0 -0 -1 -1 -1 -1 -1 -1 -1 -2 -1 -1 -0 0 -0 -1 -1
0 0 0 0 0 0 -0 -0 -0 -0 -0 -0 -0 -0 -0 -0 -0 -0 -0 0 0 0 0 0 -0 -0 -1 -1 -1 -1 -1 -1 -2 -2 -2 -3 -2 -2 -2 -1 -1 -1 -1
Wind_Speed
5 4 4 4 3 4 4 3 2 2 2 2 3 5 5 5 4 4 4 4 4 3 3 3 2 2 1 2 3 4 4 5 6 6 7 7 8 9 10 10 10 11 12
5 5 4 4 3 4 4 4 3 3 2 2 2 4 4 4 4 4 4 4 4 3 3 2 1 1 1 1 2 3 4 5 5 6 7 8 9 9 10 10 11 12 12
6 5 4 3 3 4 5 4 3 3 2 1 1 2 3 4 5 5 4 4 4 3 3 2 1 0 1 2 2 3 5 5 6 7 8 8 9 9 10 11 11 12 13
6 6 4 4 4 4 3 4 3 2 1 1 1 1 2 3 4 4 4 4 4 3 3 2 1 1 2 3 3 4 5 6 6 7 8 8 9 10 11 11 12 13 14
6 5 4 4 5 3 2 4 3 3 2 2 1 1 1 2 3 4 4 5 5 5 4 3 2 1 3 3 4 5 6 6 7 7 8 9 10 10 11 12 13 13 14
4 3 3 4 4 3 2 4 4 2 2 3 2 1 1 1 2 3 3 4 4 5 5 4 2 1 3 4 5 6 6 7 7 7 8 9 10 11 12 12 13 14 15
3 3 2 4 4 4 4 5 4 3 2 2 2 1 2 1 2 2 3 3 3 4 4 4 3 2 2 4 5 6 7 7 7 8 9 9 10 11 12 13 14 14 15
2 2 2 3 4 4 4 4 4 3 2 2 3 2 0 2 1 1 2 2 3 3 3 4 3 2 3 3 5 6 7 7 8 9 9 10 11 12 13 13 14 15 16
2 2 2 2 3 5 5 5 6 5 4 2 2 3 3 3 1 2 1 1 1 2 2 2 3 2 2 3 4 6 7 7 8 9 9 10 11 12 13 14 15 16 16
1 1 1 2 2 3 4 5 5 4 5 4 1 1 1 2 2 1 2 1 1 1 2 1 1 1 2 3 5 6 6 7 8 9 10 11 12 13 13 14 15 16 17
0 1 0 1 1 2 3 4 4 4 4 4 3 2 1 0 1 2 2 2 2 1 1 1 1 1 2 4 4 5 6 8 9 9 10 11 12 13 14 14 15 17 17
0 1 1 0 1 2 3 3 3 4 4 4 3 2 3 2 3 2 3 2 2 2 1 1 0 1 2 4 5 6 7 8 9 9 10 11 12 13 14 15 16 17 18
1 1 0 0 1 1 2 2 2 3 4 4 3 2 2 2 2 2 2 2 2 2 1 1 1 1 3 5 6 7 7 8 8 8 9 10 11 12 13 15 16 17 18
1 0 0 0 0 1 1 2 2 2 2 3 2 2 2 1 1 2 2 2 1 2 2 2 1 2 4 6 7 7 7 8 8 8 9 10 11 12 13 15 16 17 18
0 1 1 0 0 1 1 2 2 2 2 2 2 2 1 0 1 1 1 2 3 3 3 3 2 2 5 6 7 7 7 7 8 8 9 10 11 12 13 15 16 17 17
1 1 1 1 1 1 1 2 2 2 2 1 1 2 1 0 1 0 1 1 1 2 3 2 3 3 4 5 7 7 7 8 8 9 10 10 11 12 13 14 15 16 17
1 1 1 1 1 1 1 2 2 2 3 1 1 2 1 1 1 0 0 0 1 1 3 3 2 2 2 4 6 7 6 6 7 10 10 11 11 12 13 14 15 16 17
0 1 1 1 1 1 1 2 2 2 2 2 2 2 1 1 1 0 0 0 1 1 2 4 2 2 3 4 4 4 6 6 7 9 11 11 11 12 13 14 15 15 16
1 1 1 2 1 1 1 2 2 2 2 2 2 2 2 2 1 1 1 1 1 0 1 2 2 2 2 3 3 4 5 4 7 8 10 10 11 12 13 14 14 15 15
2 2 1 1 1 1 1 2 3 3 2 1 1 2 2 2 2 2 2 1 1 0 1 1 2 2 2 2 2 3 5 5 5 7 8 9 11 12 13 14 14 15 15
2 2 1 1 2 1 1 3 3 3 2 1 0 0 1 2 2 2 1 2 2 1 1 1 2 2 2 2 3 3 4 5 5 3 5 6 7 7 9 12 13 14 16
2 2 2 2 1 1 2 3 3 2 2 1 0 0 0 0 1 1 0 1 1 2 1 1 2 2 3 3 3 3 3 4 4 3 5 6 4 5 6 8 12 15 15
2 2 2 1 1 1 2 3 3 2 2 1 1 0 1 1 1 1 1 2 2 1 0 1 2 3 3 3 3 3 3 4 4 4 5 4 4 5 7 10 13 14 15
1 1 1 1 1 1 3 3 4 3 2 2 1 0 0 1 0 1 1 2 2 2 2 1 1 3 2 2 2 3 3 4 3 3 2 3 4 5 7 9 11 13 15
1 1 1 1 1 1 2 3 3 2 2 2 1 1 0 0 0 2 2 1 2 2 3 3 4 4 5 5 4 2 3 3 3 3 2 2 4 6 5 5 8 13 15
1 1 1 1 1 1 2 3 4 2 2 1 1 1 1 0 1 2 1 0 1 1 2 3 4 5 5 5 5 3 2 2 3 2 2 3 3 4 4 4 5 9 10
Wind_Direction
166 157 152 154 154 156 150 149 149 139 123 124 139 147 146 146 146 144 145 152 158 157 149 137 114 88 73 58 35 14 359 346 342 338 335 333 330 327 326 327 327 325 323
160 158 160 162 171 174 167 160 162 155 143 134 136 147 152 155 153 147 146 152 161 162 155 148 128 90 45 40 20 0 348 338 334 333 331 328 326 327 325 324 325 324 324
160 156 160 164 182 174 163 148 141 130 134 131 140 152 151 158 159 161 161 155 156 161 163 170 159 146 354 346 341 339 336 335 334 331 327 326 328 327 325 325 326 325 324
162 162 162 173 175 163 158 156 151 144 152 156 167 190 163 159 166 171 171 170 162 161 171 189 205 258 309 316 320 325 327 329 328 324 326 328 328 328 327 326 326 324 323
163 165 171 176 169 155 161 167 161 161 166 176 188 189 198 188 176 173 170 178 179 178 178 190 200 265 307 310 315 317 318 321 321 322 325 326 327 328 328 327 325 323 322
160 157 170 170 159 157 174 167 161 161 170 174 165 170 247 227 190 182 186 182 188 192 191 192 193 255 300 315 313 311 312 313 318 323 324 325 326 326 325 325 322 321 319
148 145 166 168 164 173 186 171 159 155 149 136 114 33 335 286 212 205 190 180 192 203 201 200 200 228 276 300 310 311 308 312 320 322 323 325 325 324 324 323 322 321 319
147 134 158 175 176 174 177 170 156 158 160 149 145 143 300 323 307 246 212 201 204 207 211 209 200 219 265 293 305 310 311 313 316 317 319 322 322 322 321 322 323 321 319
147 133 162 166 177 182 184 181 175 168 176 186 164 157 165 213 275 306 258 228 217 218 216 206 198 222 266 294 296 304 312 312 313 315 318 321 321 321 322 323 323 322 322
136 139 151 159 162 169 183 191 184 179 170 181 184 187 182 169 177 268 308 312 279 247 243 213 207 228 294 307 299 304 313 314 314 315 317 319 320 321 322 322 323 322 323
75 109 127 135 142 156 173 188 181 175 179 182 180 170 153 159 190 199 249 300 324 288 256 232 199 258 318 315 303 306 316 313 313 314 317 319 320 320 321 321 322 322 322
330 15 25 106 160 155 168 180 189 183 185 182 183 182 177 179 188 199 220 241 266 293 298 284 222 360 332 320 304 311 313 310 311 315 319 320 320 320 320 320 321 321 321
255 252 23 144 179 163 168 163 165 190 183 178 184 194 194 210 193 193 203 229 261 288 300 300 292 341 329 316 305 312 305 306 310 317 322 322 323 322 322 322 322 321 321
248 216 44 70 128 140 158 155 158 163 171 168 169 171 173 206 206 198 197 198 251 288 278 271 292 316 324 311 307 312 307 305 311 317 320 321 322 321 322 323 323 322 322
64 83 83 55 51 115 138 136 160 138 129 142 156 153 161 189 169 205 200 199 204 242 261 269 276 293 321 313 311 313 310 310 314 317 318 320 321 321 322 322 322 323 322
68 88 114 96 61 83 106 118 130 123 119 126 143 138 141 153 116 132 182 242 230 219 248 255 255 281 311 321 320 321 311 319 319 320 319 321 323 323 321 323 324 324 323
109 133 159 143 138 120 113 126 123 125 134 142 153 147 151 144 154 151 90 58 261 223 244 273 274 291 288 305 323 322 319 317 316 321 321 322 322 323 324 327 325 325 325
100 116 140 132 122 107 118 131 138 128 145 152 156 151 163 146 146 146 148 166 268 241 229 262 282 290 285 293 308 315 328 326 318 319 323 323 322 325 326 327 327 328 327
111 107 124 130 132 120 134 133 138 140 143 153 163 169 186 166 175 183 191 215 235 313 259 247 271 283 288 306 319 321 327 322 324 321 323 322 322 325 326 328 330 331 330
103 111 125 132 135 129 132 135 129 124 125 131 166 167 182 186 199 201 201 206 197 210 282 270 277 291 297 312 322 328 331 331 323 324 327 324 322 324 326 329 333 334 335
85 102 97 97 102 111 116 125 123 120 115 109 91 139 201 188 202 206 197 194 186 200 237 286 296 308 318 331 327 319 318 323 316 330 330 322 323 322 326 330 335 337 339
69 87 93 106 103 83 97 112 112 123 123 122 108 9 359 104 134 113 94 185 186 196 223 251 275 287 297 301 309 322 324 331 322 333 330 315 324 316 320 325 332 338 341
73 72 72 85 91 95 96 107 107 102 121 116 115 76 351 2 50 61 43 37 20 20 105 215 250 267 279 285 299 310 311 309 294 309 327 307 317 317 321 325 331 339 344
80 76 72 72 74 88 72 85 100 85 89 86 107 150 130 318 50 92 65 29 10 5 351 318 257 278 288 288 280 288 291 306 294 299 331 304 315 315 322 321 329 340 345
58 56 60 63 66 65 64 78 93 104 94 71 47 70 107 304 36 47 63 45 9 351 16 14 2 359 354 356 359 357 342 337 322 316 345 326 315 318 314 313 331 339 341
67 62 46 47 68 73 67 69 77 109 106 77 40 18 14 28 3 21 50 23 326 341 6 5 7 8 4 1 10 7 330 326 322 314 336 340 321 335 323 311 325 335 340
Height
1517 1518 1519 1520 1521 1521 1522 1523 1524 1524 1524 1525 1525 1526 1526 1527 1527 1527 1527 1527 1527 1527 1526 1526 1525 1524 1523 1522 1521 1520 1519 1518 1517 1515 1513 1512 1510 1508 1507 1505 1503 1501 1499
1515 1516 1517 1518 1519 1519 1520 1521 1522 1522 1523 1523 1523 1524 1524 1525 1525 1525 1525 1525 1525 1525 1525 1524 1524 1523 1522 1520 1519 1518 1517 1516 1514 1513 1511 1509 1508 1506 1504 1502 1500 1498 1496
1512 1513 1515 1516 1517 1517 1518 1519 1519 1520 1520 1521 1521 1522 1522 1523 1523 1523 1523 1523 1523 1523 1522 1522 1521 1521 1520 1519 1518 1516 1515 1513 1512 1510 1509 1507 1505 1503 1501 1499 1497 1495 1492
1509 1511 1512 1513 1514 1515 1516 1516 1517 1517 1518 1518 1519 1520 1520 1520 1521 1521 1521 1521 1521 1521 1520 1520 1519 1518 1517 1516 1515 1514 1513 1511 1509 1508 1506 1504 1502 1500 1498 1496 1494 1491 1489
1507 1508 1508 1510 1511 1511 1512 1513 1514 1515 1515 1516 1516 1517 1518 1518 1518 1519 1519 1519 1518 1518 1518 1517 1517 1516 1515 1514 1513 1511 1510 1508 1507 1505 1503 1501 1499 1497 1495 1493 1490 1488 1485
1503 1504 1505 1507 1508 1509 1509 1510 1511 1512 1513 1513 1514 1514 1515 1516 1516 1516 1516 1516 1516 1515 1515 1515 1514 1513 1512 1511 1510 1509 1507 1506 1504 1502 1500 1498 1496 1494 1492 1489 1487 1484 1481
1500 1501 1502 1503 1504 1506 1506 1507 1507 1509 1509 1510 1511 1512 1512 1513 1513 1513 1513 1513 1512 1512 1512 1512 1511 1510 1510 1509 1507 1506 1504 1503 1501 1499 1497 1495 1493 1491 1488 1486 1483 1480 1477
1496 1497 1498 1499 1501 1502 1503 1503 1504 1505 1506 1507 1508 1509 1509 1510 1509 1510 1510 1510 1510 1509 1509 1509 1508 1507 1507 1505 1504 1502 1501 1499 1498 1496 1494 1492 1490 1487 1485 1482 1479 1476 1473
1492 1493 1495 1496 1497 1498 1498 1499 1501 1502 1503 1504 1505 1506 1506 1506 1506 1507 1506 1507 1507 1507 1507 1506 1505 1505 1504 1502 1501 1499 1497 1496 1494 1493 1491 1489 1486 1484 1482 1479 1476 1472 1469
1489 1490 1491 1492 1493 1494 1495 1496 1497 1499 1500 1501 1502 1503 1504 1504 1504 1503 1504 1504 1504 1504 1504 1503 1502 1501 1501 1499 1497 1496 1494 1493 1491 1489 1487 1485 1483 1480 1478 1475 1472 1469 1466
1485 1486 1488 1489 1490 1491 1492 1493 1494 1496 1497 1498 1498 1499 1500 1501 1502 1501 1500 1501 1501 1501 1501 1500 1499 1498 1497 1496 1495 1493 1491 1489 1488 1486 1484 1481 1479 1477 1474 1471 1468 1465 1462
1481 1483 1484 1485 1487 1488 1489 1491 1491 1492 1494 1495 1495 1496 1497 1498 1498 1499 1498 1497 1497 1498 1497 1497 1496 1495 1494 1493 1491 1490 1488 1486 1484 1482 1480 1478 1475 1473 1470 1468 1464 1461 1458
1478 1480 1481 1482 1483 1485 1486 1488 1488 1489 1490 1491 1492 1493 1494 1495 1496 1496 1496 1495 1494 1494 1494 1494 1493 1492 1491 1489 1488 1486 1484 1483 1481 1479 1477 1474 1472 1469 1466 1464 1460 1457 1453
1476 1476 1477 1478 1480 1482 1483 1484 1485 1485 1486 1487 1489 1490 1491 1492 1493 1493 1493 1493 1491 1491 1490 1490 1489 1489 1487 1486 1485 1483 1481 1479 1478 1475 1473 1471 1468 1465 1463 1460 1456 1453 1449
1473 1474 1475 1476 1478 1479 1480 1481 1482 1482 1484 1485 1486 1487 1488 1489 1490 1490 1490 1490 1490 1487 1486 1486 1486 1485 1484 1483 1482 1480 1478 1476 1474 1472 1470 1467 1465 1462 1459 1455 1452 1449 1445
1470 1471 1472 1474 1475 1476 1477 1478 1479 1479 1481 1482 1483 1484 1485 1486 1486 1487 1487 1487 1486 1485 1484 1483 1483 1482 1481 1480 1478 1476 1475 1473 1471 1469 1467 1464 1461 1458 1455 1452 1448 1444 1441
1468 1469 1470 1471 1472 1473 1474 1475 1476 1477 1479 1480 1481 1482 1482 1483 1483 1483 1484 1484 1483 1483 1481 1480 1480 1479 1478 1477 1475 1473 1471 1469 1468 1466 1463 1461 1458 1455 1451 1448 1444 1441 1437
1465 1466 1467 1468 1469 1470 1471 1472 1474 1475 1476 1477 1479 1479 1479 1480 1480 1480 1481 1481 1481 1480 1479 1477 1476 1476 1475 1473 1472 1470 1468 1466 1464 1462 1460 1457 1454 1451 1448 1444 1441 1437 1433
1463 1464 1465 1466 1467 1468 1469 1470 1472 1472 1474 1475 1476 1477 1477 1477 1477 1478 1478 1478 1478 1477 1476 1474 1473 1472 1471 1470 1469 1467 1465 1463 1461 1459 1457 1454 1451 1448 1445 1441 1437 1434 1430
1461 1462 1463 1464 1465 1466 1467 1468 1469 1470 1471 1472 1474 1474 1475 1475 1475 1475 1475 1476 1475 1474 1473 1472 1471 1469 1468 1467 1465 1463 1461 1460 1458 1456 1454 1451 1448 1445 1442 1438 1434 1431 1427
1459 1460 1461 1462 1463 1464 1465 1466 1467 1468 1469 1470 1471 1472 1472 1473 1473 1473 1473 1473 1473 1472 1471 1469 1468 1466 1465 1464 1462 1460 1459 1457 1455 1453 1450 1448 1445 1442 1439 1435 1432 1428 1424
1458 1459 1460 1460 1461 1462 1463 1464 1465 1466 1467 1468 1468 1469 1470 1471 1471 1471 1471 1471 1470 1470 1468 1467 1466 1464 1463 1462 1460 1459 1457 1454 1452 1451 1447 1445 1442 1439 1436 1432 1429 1426 1422
1457 1458 1459 1459 1460 1461 1462 1462 1463 1464 1465 1466 1467 1467 1468 1468 1468 1469 1468 1468 1468 1467 1467 1466 1464 1463 1461 1460 1459 1457 1455 1453 1451 1449 1445 1441 1439 1436 1433 1430 1427 1424 1420
1455 1457 1457 1458 1458 1459 1460 1460 1461 1462 1463 1464 1465 1465 1466 1466 1467 1467 1466 1466 1466 1465 1465 1464 1463 1461 1460 1459 1457 1456 1453 1451 1449 1447 1444 1439 1436 1433 1431 1428 1426 1422 1418
1454 1455 1456 1457 1457 1458 1459 1459 1460 1461 1461 1462 1463 1463 1464 1464 1465 1465 1465 1464 1464 1463 1463 1462 1461 1460 1459 1457 1456 1454 1451 1449 1446 1444 1442 1438 1434 1431 1428 1426 1424 1420 1417
1453 1454 1455 1456 1456 1457 1458 1459 1459 1459 1460 1460 1461 1462 1462 1463 1463 1463 1463 1462 1461 1461 1460 1460 1459 1458 1457 1456 1454 1452 1450 1447 1444 1442 1440 1437 1434 1431 1426 1424 1422 1419 1415